Location: The D'Auria's Ocala Star Observatory
(29.0276°N, 82.1742°W)
Time: 07:44:07
(UTC-05:00)

Okean 3 Rocket - Visible Passes

Search period start: 04 March 2015 00:00
Search period end: 14 March 2015 01:00
Orbit: 615 x 647 km, 82.5° (Epoch: 02 March)

Date Brightness Start Highest point End Pass type
(mag) Time Alt. Az. Time Alt. Az. Time Alt. Az.
04 Mar 5.2 19:10:32 10° NE 19:13:03 15° ENE 19:14:25 14° E visible
04 Mar 5.3 20:47:19 10° NNW 20:51:18 31° W 20:51:58 30° WSW visible
05 Mar 4.2 19:30:25 10° NNE 19:34:26 33° E 19:38:06 12° SE visible
05 Mar 6.5 21:09:49 10° NW 21:12:20 14° W 21:14:36 10° WSW visible
06 Mar 3.5 19:51:09 10° N 19:55:39 78° E 20:00:09 10° S visible
07 Mar 4.7 20:12:27 10° NNW 20:16:43 44° W 20:21:01 10° SSW visible
08 Mar 4.7 19:56:08 10° NNE 19:59:45 24° ENE 20:03:28 10° SE visible
08 Mar 6.2 21:34:26 10° NW 21:37:46 20° W 21:40:58 10° SW visible
09 Mar 3.7 20:16:37 10° N 20:21:01 54° E 20:25:27 10° SSE visible
10 Mar 4.1 20:37:41 10° NNW 20:42:09 64° W 20:46:37 10° S visible
11 Mar 5.8 20:59:20 10° NNW 21:03:11 27° W 21:06:59 10° SSW visible
12 Mar 7.0 21:22:11 10° WNW 21:24:12 12° W 21:25:55 10° WSW visible
13 Mar 3.7 20:03:00 10° N 20:07:32 90° WNW 20:12:04 10° S visible
